Zurück zum Katalog

SL-8 DEB

AktivLEO
NORAD 17754·DEBRIS·🇷🇺 Russia

Gestartet Sep 4, 1985 von Plesetsk Cosmodrome

Loading…

Nächste Überflüge (nächste 24 Stunden)

TLE

AktuellSource: Space-Track

Epoche: Sep 14, 2026, 04:21 UTC

1 17754U 85079C   26257.18130681  .00000890  00000-0  22166-3 0  9990
2 17754  74.0336 257.6455 0015969 303.5394 180.3028 14.53097421152950

Verfolge SL-8 DEB in Echtzeit mit AllMySat

Download on the App Store